Time,TemperatureF,DewpointF,PressureIn,WindDirection,WindDirectionDegrees,WindSpeedMPH,WindSpeedGustMPH,Humidity,HourlyPrecipIn,Conditions,Clouds,dailyrainin,SolarRadiationWatts/m^2,SoftwareType,DateUTC
2013-07-02 00:01:00,62.8,53.3,30.10,NE,53,0.0,0.0,71,0.00,,,0.00,0,WeatherCatV1.15B25,2013-07-02 05:01:00,
2013-07-02 00:06:00,62.7,53.2,30.10,NE,53,0.0,0.0,71,0.00,,,0.00,0,WeatherCatV1.15B25,2013-07-02 05:06:00,
2013-07-02 00:11:00,62.5,53.7,30.10,NE,53,0.0,0.0,73,0.00,,,0.00,0,WeatherCatV1.15B25,2013-07-02 05:11:00,
2013-07-02 00:16:00,62.4,53.6,30.10,NE,53,0.0,0.0,73,0.00,,,0.00,0,WeatherCatV1.15B25,2013-07-02 05:16:00,
2013-07-02 00:21:00,62.2,53.4,30.10,NE,53,0.0,0.0,73,0.00,,,0.00,0,WeatherCatV1.15B25,2013-07-02 05:21:00,
2013-07-02 00:26:00,61.9,53.1,30.10,NE,53,0.0,0.0,73,0.00,,,0.00,0,WeatherCatV1.15B25,2013-07-02 05:26:00,
2013-07-02 00:31:00,61.7,53.3,30.10,NE,53,0.0,0.0,74,0.00,,,0.00,0,WeatherCatV1.15B25,2013-07-02 05:31:00,
2013-07-02 00:36:00,61.5,53.1,30.10,NE,53,0.0,0.0,74,0.00,,,0.00,0,WeatherCatV1.15B25,2013-07-02 05:36:00,
2013-07-02 00:41:00,61.3,52.9,30.10,NE,53,0.0,0.0,74,0.00,,,0.00,0,WeatherCatV1.15B25,2013-07-02 05:41:00,
2013-07-02 00:45:00,61.2,53.2,30.10,NE,53,0.0,0.0,75,0.00,,,0.00,0,WeatherCatV1.15B25,2013-07-02 05:45:00,
2013-07-02 00:50:00,61.0,53.0,30.10,NE,53,0.0,0.0,75,0.00,,,0.00,0,WeatherCatV1.15B25,2013-07-02 05:50:00,
2013-07-02 00:55:00,61.0,53.0,30.10,NE,53,0.0,0.0,75,0.00,,,0.00,0,WeatherCatV1.15B25,2013-07-02 05:55:00,
2013-07-02 01:00:00,61.1,53.1,30.10,NE,53,0.0,0.0,75,0.00,,,0.00,0,WeatherCatV1.15B25,2013-07-02 06:00:00,
2013-07-02 01:05:00,61.1,53.1,30.10,NE,53,0.0,0.0,75,0.00,,,0.00,0,WeatherCatV1.15B25,2013-07-02 06:05:00,
2013-07-02 01:10:00,61.1,53.1,30.10,NE,53,0.0,0.0,75,0.00,,,0.00,0,WeatherCatV1.15B25,2013-07-02 06:10:00,
2013-07-02 01:15:00,60.9,52.9,30.10,NE,53,0.0,0.0,75,0.00,,,0.00,0,WeatherCatV1.15B25,2013-07-02 06:15:00,
2013-07-02 01:20:00,60.7,52.7,30.10,NE,53,0.0,0.0,75,0.00,,,0.00,0,WeatherCatV1.15B25,2013-07-02 06:20:00,
2013-07-02 01:25:00,60.6,53.0,30.10,NE,53,0.0,0.0,76,0.00,,,0.00,0,WeatherCatV1.15B25,2013-07-02 06:25:00,
2013-07-02 01:30:00,60.6,53.0,30.10,NE,53,0.0,0.0,76,0.00,,,0.00,0,WeatherCatV1.15B25,2013-07-02 06:30:00,
2013-07-02 01:35:00,60.8,52.8,30.10,NE,53,0.0,0.0,75,0.00,,,0.00,0,WeatherCatV1.15B25,2013-07-02 06:35:00,
2013-07-02 01:40:00,60.8,52.8,30.10,NE,53,0.0,0.0,75,0.00,,,0.00,0,WeatherCatV1.15B25,2013-07-02 06:40:00,
2013-07-02 01:45:00,60.8,52.8,30.10,NE,53,0.0,0.0,75,0.00,,,0.00,0,WeatherCatV1.15B25,2013-07-02 06:45:00,
2013-07-02 01:50:00,60.7,53.1,30.10,NE,53,0.0,0.0,76,0.00,,,0.00,0,WeatherCatV1.15B25,2013-07-02 06:50:00,
2013-07-02 01:55:00,60.6,53.0,30.10,NE,53,0.0,0.0,76,0.00,,,0.00,0,WeatherCatV1.15B25,2013-07-02 06:55:00,
2013-07-02 02:00:00,60.4,52.8,30.10,NE,53,0.0,0.0,76,0.00,,,0.00,0,WeatherCatV1.15B25,2013-07-02 07:00:00,
2013-07-02 02:05:00,60.2,52.6,30.10,NE,53,0.0,0.0,76,0.00,,,0.00,0,WeatherCatV1.15B25,2013-07-02 07:05:00,
2013-07-02 02:10:00,60.1,52.5,30.10,NE,53,0.0,0.0,76,0.00,,,0.00,0,WeatherCatV1.15B25,2013-07-02 07:10:00,
2013-07-02 02:15:00,60.0,52.4,30.10,NE,53,0.0,0.0,76,0.00,,,0.00,0,WeatherCatV1.15B25,2013-07-02 07:15:00,
2013-07-02 02:20:00,59.9,52.7,30.10,NE,53,0.0,0.0,77,0.00,,,0.00,0,WeatherCatV1.15B25,2013-07-02 07:20:00,
2013-07-02 02:25:00,60.0,52.8,30.10,NE,53,0.0,0.0,77,0.00,,,0.00,0,WeatherCatV1.15B25,2013-07-02 07:25:00,
2013-07-02 02:30:00,60.0,52.4,30.10,NE,53,0.0,0.0,76,0.00,,,0.00,0,WeatherCatV1.15B25,2013-07-02 07:30:00,
2013-07-02 02:35:00,59.9,52.3,30.10,NE,53,0.0,0.0,76,0.00,,,0.00,0,WeatherCatV1.15B25,2013-07-02 07:35:00,
2013-07-02 02:40:00,59.9,52.3,30.10,NE,53,0.0,0.0,76,0.00,,,0.00,0,WeatherCatV1.15B25,2013-07-02 07:40:00,
2013-07-02 02:45:00,59.9,52.3,30.11,NE,53,0.0,0.0,76,0.00,,,0.00,0,WeatherCatV1.15B25,2013-07-02 07:45:00,
2013-07-02 02:50:00,59.9,52.3,30.11,NE,53,0.0,0.0,76,0.00,,,0.00,0,WeatherCatV1.15B25,2013-07-02 07:50:00,
2013-07-02 02:55:00,59.8,52.6,30.11,NE,53,0.0,0.0,77,0.00,,,0.00,0,WeatherCatV1.15B25,2013-07-02 07:55:00,
2013-07-02 03:00:00,59.7,52.5,30.10,NE,53,0.0,0.0,77,0.00,,,0.00,0,WeatherCatV1.15B25,2013-07-02 08:00:00,
2013-07-02 03:06:00,59.5,52.3,30.10,NE,53,0.0,0.0,77,0.00,,,0.00,0,WeatherCatV1.15B25,2013-07-02 08:06:00,
2013-07-02 03:11:00,59.5,52.3,30.10,NE,53,0.0,0.0,77,0.00,,,0.00,0,WeatherCatV1.15B25,2013-07-02 08:11:00,
2013-07-02 03:16:00,59.5,52.3,30.10,NE,53,0.0,0.0,77,0.00,,,0.00,0,WeatherCatV1.15B25,2013-07-02 08:16:00,
2013-07-02 03:21:00,59.5,52.3,30.10,NE,53,0.0,0.0,77,0.00,,,0.00,0,WeatherCatV1.15B25,2013-07-02 08:21:00,
2013-07-02 03:26:00,59.3,52.1,30.10,NE,53,0.0,0.0,77,0.00,,,0.00,0,WeatherCatV1.15B25,2013-07-02 08:26:00,
2013-07-02 03:31:00,59.1,52.2,30.10,NE,53,0.0,0.0,78,0.00,,,0.00,0,WeatherCatV1.15B25,2013-07-02 08:31:00,
2013-07-02 03:36:00,59.0,52.1,30.10,NE,53,0.0,0.0,78,0.00,,,0.00,0,WeatherCatV1.15B25,2013-07-02 08:36:00,
2013-07-02 03:41:00,59.0,52.1,30.10,NE,53,0.0,0.0,78,0.00,,,0.00,0,WeatherCatV1.15B25,2013-07-02 08:41:00,
2013-07-02 03:46:00,59.0,52.1,30.10,NE,53,0.0,0.0,78,0.00,,,0.00,0,WeatherCatV1.15B25,2013-07-02 08:46:00,
2013-07-02 03:51:00,59.0,52.1,30.10,NE,53,0.0,0.0,78,0.00,,,0.00,0,WeatherCatV1.15B25,2013-07-02 08:51:00,
2013-07-02 03:56:00,59.0,52.1,30.10,NE,53,0.0,0.0,78,0.00,,,0.00,0,WeatherCatV1.15B25,2013-07-02 08:56:00,
2013-07-02 04:01:00,59.0,52.1,30.10,NE,53,0.0,0.0,78,0.00,,,0.00,0,WeatherCatV1.15B25,2013-07-02 09:01:00,
2013-07-02 04:06:00,58.7,52.2,30.10,NE,53,0.0,0.0,79,0.00,,,0.00,0,WeatherCatV1.15B25,2013-07-02 09:06:00,
2013-07-02 04:11:00,58.5,52.0,30.10,NE,53,0.0,0.0,79,0.00,,,0.00,0,WeatherCatV1.15B25,2013-07-02 09:11:00,
2013-07-02 04:16:00,58.5,52.0,30.10,NE,53,0.0,0.0,79,0.00,,,0.00,0,WeatherCatV1.15B25,2013-07-02 09:16:00,
2013-07-02 04:21:00,58.4,51.9,30.10,NE,53,0.0,0.0,79,0.00,,,0.00,0,WeatherCatV1.15B25,2013-07-02 09:21:00,
2013-07-02 04:26:00,58.4,51.9,30.10,NE,53,0.0,0.0,79,0.00,,,0.00,0,WeatherCatV1.15B25,2013-07-02 09:26:00,
2013-07-02 04:31:00,58.4,51.9,30.10,NE,53,0.0,0.0,79,0.00,,,0.00,0,WeatherCatV1.15B25,2013-07-02 09:31:00,
2013-07-02 04:36:00,58.2,51.7,30.10,NE,53,0.0,0.0,79,0.00,,,0.00,0,WeatherCatV1.15B25,2013-07-02 09:36:00,
2013-07-02 04:41:00,58.2,51.7,30.10,NE,53,0.0,0.0,79,0.00,,,0.00,0,WeatherCatV1.15B25,2013-07-02 09:41:00,
2013-07-02 04:46:00,58.0,51.9,30.10,NE,53,0.0,0.0,80,0.00,,,0.00,0,WeatherCatV1.15B25,2013-07-02 09:46:00,
2013-07-02 04:51:00,57.9,51.8,30.10,NE,53,0.0,0.0,80,0.00,,,0.00,0,WeatherCatV1.15B25,2013-07-02 09:51:00,
2013-07-02 04:56:00,58.0,51.9,30.10,NE,53,0.0,0.0,80,0.00,,,0.00,0,WeatherCatV1.15B25,2013-07-02 09:56:00,
2013-07-02 05:01:00,58.1,51.6,30.10,NE,53,0.0,3.0,79,0.00,,,0.00,0,WeatherCatV1.15B25,2013-07-02 10:01:00,
2013-07-02 05:06:00,58.1,51.6,30.10,NE,53,0.0,0.0,79,0.00,,,0.00,0,WeatherCatV1.15B25,2013-07-02 10:06:00,
2013-07-02 05:11:00,58.0,51.5,30.10,NE,53,0.0,0.0,79,0.00,,,0.00,0,WeatherCatV1.15B25,2013-07-02 10:11:00,
2013-07-02 05:16:00,57.8,51.3,30.10,NE,53,0.0,0.0,79,0.00,,,0.00,0,WeatherCatV1.15B25,2013-07-02 10:16:00,
2013-07-02 05:21:00,57.7,51.6,30.10,NE,53,0.0,0.0,80,0.00,,,0.00,0,WeatherCatV1.15B25,2013-07-02 10:21:00,
2013-07-02 05:26:00,57.6,51.5,30.10,NE,53,0.0,0.0,80,0.00,,,0.00,0,WeatherCatV1.15B25,2013-07-02 10:26:00,
2013-07-02 05:31:00,57.6,51.5,30.10,NE,53,0.0,0.0,80,0.00,,,0.00,0,WeatherCatV1.15B25,2013-07-02 10:31:00,
2013-07-02 05:36:00,57.5,51.4,30.10,NE,53,0.0,0.0,80,0.00,,,0.00,0,WeatherCatV1.15B25,2013-07-02 10:36:00,
2013-07-02 05:41:00,57.3,51.2,30.10,NE,53,0.0,0.0,80,0.00,,,0.00,0,WeatherCatV1.15B25,2013-07-02 10:41:00,
2013-07-02 05:46:00,57.1,51.0,30.10,NE,53,0.0,0.0,80,0.00,,,0.00,0,WeatherCatV1.15B25,2013-07-02 10:46:00,
2013-07-02 05:51:00,56.9,51.1,30.10,NE,53,0.0,0.0,81,0.00,,,0.00,0,WeatherCatV1.15B25,2013-07-02 10:51:00,
2013-07-02 05:56:00,56.7,50.9,30.10,NE,53,0.0,0.0,81,0.00,,,0.00,0,WeatherCatV1.15B25,2013-07-02 10:56:00,
2013-07-02 06:01:00,56.7,50.9,30.10,NE,53,0.0,0.0,81,0.00,,,0.00,0,WeatherCatV1.15B25,2013-07-02 11:01:00,
2013-07-02 06:06:00,56.7,50.9,30.10,NE,53,0.0,0.0,81,0.00,,,0.00,5,WeatherCatV1.15B25,2013-07-02 11:06:00,
2013-07-02 06:11:00,56.5,51.1,30.10,NE,53,0.0,0.0,82,0.00,,,0.00,7,WeatherCatV1.15B25,2013-07-02 11:11:00,
2013-07-02 06:16:00,56.4,51.0,30.11,NE,53,0.0,0.0,82,0.00,,,0.00,9,WeatherCatV1.15B25,2013-07-02 11:16:00,
2013-07-02 06:21:00,56.2,50.8,30.11,NE,53,0.0,0.0,82,0.00,,,0.00,12,WeatherCatV1.15B25,2013-07-02 11:21:00,
2013-07-02 06:26:00,56.2,50.8,30.11,NE,53,0.0,0.0,82,0.00,,,0.00,18,WeatherCatV1.15B25,2013-07-02 11:26:00,
2013-07-02 06:31:00,56.1,51.0,30.11,NE,53,0.0,1.0,83,0.00,,,0.00,21,WeatherCatV1.15B25,2013-07-02 11:31:00,
2013-07-02 06:36:00,56.3,50.9,30.11,NE,53,0.0,0.0,82,0.00,,,0.00,25,WeatherCatV1.15B25,2013-07-02 11:36:00,
2013-07-02 06:41:00,56.4,51.3,30.11,NE,53,0.0,0.0,83,0.00,,,0.00,30,WeatherCatV1.15B25,2013-07-02 11:41:00,
2013-07-02 06:46:00,56.5,51.1,30.11,NE,53,1.0,1.0,82,0.00,,,0.00,35,WeatherCatV1.15B25,2013-07-02 11:46:00,
2013-07-02 06:51:00,56.7,51.3,30.11,NE,53,0.0,0.0,82,0.00,,,0.00,40,WeatherCatV1.15B25,2013-07-02 11:51:00,
2013-07-02 06:56:00,57.0,51.2,30.11,NE,53,0.0,0.0,81,0.00,,,0.00,44,WeatherCatV1.15B25,2013-07-02 11:56:00,
2013-07-02 07:01:00,57.4,51.6,30.11,NE,53,1.0,3.0,81,0.00,,,0.00,49,WeatherCatV1.15B25,2013-07-02 12:01:00,
2013-07-02 07:06:00,57.6,51.5,30.12,NE,53,0.0,0.0,80,0.00,,,0.00,54,WeatherCatV1.15B25,2013-07-02 12:06:00,
2013-07-02 07:11:00,57.8,51.7,30.12,NE,53,0.0,1.0,80,0.00,,,0.00,60,WeatherCatV1.15B25,2013-07-02 12:11:00,
2013-07-02 07:16:00,58.2,51.7,30.12,NE,53,0.0,0.0,79,0.00,,,0.00,63,WeatherCatV1.15B25,2013-07-02 12:16:00,
2013-07-02 07:21:00,58.5,52.0,30.12,NE,53,0.0,0.0,79,0.00,,,0.00,77,WeatherCatV1.15B25,2013-07-02 12:21:00,
2013-07-02 07:26:00,58.8,52.3,30.12,NE,53,0.0,0.0,79,0.00,,,0.00,132,WeatherCatV1.15B25,2013-07-02 12:26:00,
2013-07-02 07:31:00,59.0,52.1,30.12,NE,53,0.0,0.0,78,0.00,,,0.00,146,WeatherCatV1.15B25,2013-07-02 12:31:00,
2013-07-02 07:36:00,59.7,52.5,30.12,NE,53,0.0,2.0,77,0.00,,,0.00,158,WeatherCatV1.15B25,2013-07-02 12:36:00,
2013-07-02 07:41:00,60.3,52.7,30.12,NE,53,0.0,2.0,76,0.00,,,0.00,174,WeatherCatV1.15B25,2013-07-02 12:41:00,
2013-07-02 07:46:00,60.9,52.6,30.12,NE,53,0.0,1.0,74,0.00,,,0.00,188,WeatherCatV1.15B25,2013-07-02 12:46:00,
2013-07-02 07:51:00,61.4,53.0,30.12,NE,53,0.0,0.0,74,0.00,,,0.00,200,WeatherCatV1.15B25,2013-07-02 12:51:00,
2013-07-02 07:56:00,61.9,53.1,30.12,NE,53,0.0,2.0,73,0.00,,,0.00,218,WeatherCatV1.15B25,2013-07-02 12:56:00,
2013-07-02 08:01:00,62.5,53.0,30.12,NE,53,0.0,0.0,71,0.00,,,0.00,230,WeatherCatV1.15B25,2013-07-02 13:01:00,
2013-07-02 08:06:00,63.1,53.2,30.11,NE,53,0.0,0.0,70,0.00,,,0.00,246,WeatherCatV1.15B25,2013-07-02 13:06:00,
2013-07-02 08:11:00,63.7,54.1,30.11,NE,53,0.0,0.0,71,0.00,,,0.00,265,WeatherCatV1.15B25,2013-07-02 13:11:00,
2013-07-02 08:16:00,64.2,54.2,30.11,NE,53,0.0,1.0,70,0.00,,,0.00,279,WeatherCatV1.15B25,2013-07-02 13:16:00,
2013-07-02 08:21:00,64.7,53.9,30.11,NE,53,0.0,2.0,68,0.00,,,0.00,295,WeatherCatV1.15B25,2013-07-02 13:21:00,
2013-07-02 08:26:00,65.1,54.3,30.12,NE,53,1.0,1.0,68,0.00,,,0.00,311,WeatherCatV1.15B25,2013-07-02 13:26:00,
2013-07-02 08:31:00,65.6,53.9,30.12,NE,53,0.0,1.0,66,0.00,,,0.00,327,WeatherCatV1.15B25,2013-07-02 13:31:00,
2013-07-02 08:36:00,66.0,54.3,30.11,NE,53,0.0,2.0,66,0.00,,,0.00,343,WeatherCatV1.15B25,2013-07-02 13:36:00,
2013-07-02 08:41:00,66.6,54.9,30.11,NE,53,0.0,0.0,66,0.00,,,0.00,359,WeatherCatV1.15B25,2013-07-02 13:41:00,
2013-07-02 08:46:00,67.3,55.1,30.12,NE,53,0.0,0.0,65,0.00,,,0.00,376,WeatherCatV1.15B25,2013-07-02 13:46:00,
2013-07-02 08:51:00,68.1,54.6,30.11,NE,53,1.0,4.0,62,0.00,,,0.00,390,WeatherCatV1.15B25,2013-07-02 13:51:00,
2013-07-02 08:56:00,68.4,54.0,30.11,NE,53,3.0,3.0,60,0.00,,,0.00,410,WeatherCatV1.15B25,2013-07-02 13:56:00,
2013-07-02 09:01:00,68.8,54.8,30.11,NE,53,0.0,0.0,61,0.00,,,0.00,422,WeatherCatV1.15B25,2013-07-02 14:01:00,
2013-07-02 09:06:00,69.4,55.8,30.11,NE,53,0.0,0.0,62,0.00,,,0.00,439,WeatherCatV1.15B25,2013-07-02 14:06:00,
2013-07-02 09:11:00,70.1,56.0,30.11,NE,53,0.0,0.0,61,0.00,,,0.00,459,WeatherCatV1.15B25,2013-07-02 14:11:00,
2013-07-02 09:16:00,70.6,55.6,30.11,NE,53,1.0,4.0,59,0.00,,,0.00,471,WeatherCatV1.15B25,2013-07-02 14:16:00,
2013-07-02 09:21:00,70.7,55.2,30.11,NE,53,3.0,4.0,58,0.00,,,0.00,485,WeatherCatV1.15B25,2013-07-02 14:21:00,
2013-07-02 09:26:00,70.9,55.4,30.11,NE,53,1.0,3.0,58,0.00,,,0.00,504,WeatherCatV1.15B25,2013-07-02 14:26:00,
2013-07-02 09:31:00,71.3,55.7,30.11,NE,53,0.0,3.0,58,0.00,,,0.00,517,WeatherCatV1.15B25,2013-07-02 14:31:00,
2013-07-02 09:36:00,71.9,56.8,30.11,NE,53,0.0,1.0,59,0.00,,,0.00,531,WeatherCatV1.15B25,2013-07-02 14:36:00,
2013-07-02 09:41:00,72.2,57.1,30.11,NE,53,1.0,3.0,59,0.00,,,0.00,543,WeatherCatV1.15B25,2013-07-02 14:41:00,
2013-07-02 09:46:00,72.2,57.1,30.11,NE,53,1.0,4.0,59,0.00,,,0.00,561,WeatherCatV1.15B25,2013-07-02 14:46:00,
2013-07-02 09:51:00,72.6,56.0,30.11,NE,53,0.0,3.0,56,0.00,,,0.00,578,WeatherCatV1.15B25,2013-07-02 14:51:00,
2013-07-02 09:56:00,73.1,57.4,30.11,NE,53,0.0,2.0,58,0.00,,,0.00,592,WeatherCatV1.15B25,2013-07-02 14:56:00,
2013-07-02 10:01:00,73.9,57.7,30.11,NE,53,0.0,2.0,57,0.00,,,0.00,608,WeatherCatV1.15B25,2013-07-02 15:01:00,
2013-07-02 10:06:00,74.2,57.5,30.11,NE,53,1.0,2.0,56,0.00,,,0.00,621,WeatherCatV1.15B25,2013-07-02 15:06:00,
2013-07-02 10:11:00,74.1,56.9,30.11,NE,53,0.0,4.0,55,0.00,,,0.00,636,WeatherCatV1.15B25,2013-07-02 15:11:00,
2013-07-02 10:16:00,74.4,57.7,30.10,NE,53,1.0,4.0,56,0.00,,,0.00,652,WeatherCatV1.15B25,2013-07-02 15:16:00,
2013-07-02 10:21:00,75.3,58.5,30.10,NE,53,0.0,2.0,56,0.00,,,0.00,656,WeatherCatV1.15B25,2013-07-02 15:21:00,
2013-07-02 10:26:00,76.0,58.1,30.10,NE,53,0.0,1.0,54,0.00,,,0.00,673,WeatherCatV1.15B25,2013-07-02 15:26:00,
2013-07-02 10:31:00,76.6,58.7,30.10,NE,53,2.0,5.0,54,0.00,,,0.00,689,WeatherCatV1.15B25,2013-07-02 15:31:00,
2013-07-02 10:36:00,76.6,57.6,30.10,NE,51,1.0,5.0,52,0.00,,,0.00,700,WeatherCatV1.15B25,2013-07-02 15:36:00,
2013-07-02 10:41:00,76.3,57.4,30.10,NNE,27,1.0,7.0,52,0.00,,,0.00,719,WeatherCatV1.15B25,2013-07-02 15:41:00,
2013-07-02 10:46:00,76.4,58.5,30.10,NNE,22,1.0,5.0,54,0.00,,,0.00,728,WeatherCatV1.15B25,2013-07-02 15:46:00,
2013-07-02 10:51:00,76.8,57.3,30.10,NNE,18,1.0,3.0,51,0.00,,,0.00,744,WeatherCatV1.15B25,2013-07-02 15:51:00,
2013-07-02 10:56:00,77.1,57.6,30.10,NNE,22,2.0,7.0,51,0.00,,,0.00,761,WeatherCatV1.15B25,2013-07-02 15:56:00,
2013-07-02 11:01:00,77.5,59.0,30.10,NNE,22,3.0,3.0,53,0.00,,,0.00,765,WeatherCatV1.15B25,2013-07-02 16:01:00,
2013-07-02 11:06:00,77.8,58.7,30.10,NNE,19,0.0,5.0,52,0.00,,,0.00,777,WeatherCatV1.15B25,2013-07-02 16:06:00,
2013-07-02 11:11:00,78.2,58.6,30.10,NNE,29,1.0,2.0,51,0.00,,,0.00,788,WeatherCatV1.15B25,2013-07-02 16:11:00,
2013-07-02 11:16:00,78.7,58.5,30.10,NNE,29,0.0,4.0,50,0.00,,,0.00,800,WeatherCatV1.15B25,2013-07-02 16:16:00,
2013-07-02 11:21:00,78.9,58.7,30.10,NNE,26,3.0,5.0,50,0.00,,,0.00,807,WeatherCatV1.15B25,2013-07-02 16:21:00,
2013-07-02 11:26:00,78.7,56.2,30.10,NNE,16,2.0,5.0,46,0.00,,,0.00,816,WeatherCatV1.15B25,2013-07-02 16:26:00,
2013-07-02 11:31:00,78.7,57.3,30.10,NNE,16,0.0,5.0,48,0.00,,,0.00,826,WeatherCatV1.15B25,2013-07-02 16:31:00,
2013-07-02 11:36:00,78.7,56.8,30.10,North,5,4.0,5.0,47,0.00,,,0.00,838,WeatherCatV1.15B25,2013-07-02 16:36:00,
2013-07-02 11:41:00,79.4,56.2,30.10,North,5,2.0,2.0,45,0.00,,,0.00,851,WeatherCatV1.15B25,2013-07-02 16:41:00,
2013-07-02 11:46:00,79.8,57.2,30.10,North,5,1.0,1.0,46,0.00,,,0.00,856,WeatherCatV1.15B25,2013-07-02 16:46:00,
2013-07-02 11:51:00,80.2,57.5,30.10,North,5,3.0,3.0,46,0.00,,,0.00,867,WeatherCatV1.15B25,2013-07-02 16:51:00,
2013-07-02 11:56:00,80.1,56.2,30.09,North,9,3.0,6.0,44,0.00,,,0.00,875,WeatherCatV1.15B25,2013-07-02 16:56:00,
2013-07-02 12:01:00,80.1,56.8,30.09,North,5,0.0,5.0,45,0.00,,,0.00,882,WeatherCatV1.15B25,2013-07-02 17:01:00,
2013-07-02 12:06:00,79.8,55.9,30.09,NNE,15,1.0,8.0,44,0.00,,,0.00,891,WeatherCatV1.15B25,2013-07-02 17:06:00,
2013-07-02 12:11:00,79.5,55.0,30.09,North,11,0.0,5.0,43,0.00,,,0.00,911,WeatherCatV1.15B25,2013-07-02 17:11:00,
2013-07-02 12:16:00,79.8,56.5,30.09,NNE,14,0.0,6.0,45,0.00,,,0.00,916,WeatherCatV1.15B25,2013-07-02 17:16:00,
2013-07-02 12:21:00,80.0,55.5,30.09,North,5,2.0,8.0,43,0.00,,,0.00,937,WeatherCatV1.15B25,2013-07-02 17:21:00,
2013-07-02 12:26:00,80.3,57.0,30.09,North,0,1.0,2.0,45,0.00,,,0.00,979,WeatherCatV1.15B25,2013-07-02 17:26:00,
2013-07-02 12:31:00,81.2,56.5,30.09,North,0,6.0,6.0,43,0.00,,,0.00,998,WeatherCatV1.15B25,2013-07-02 17:31:00,
2013-07-02 12:36:00,80.2,54.3,30.09,NNE,15,2.0,5.0,41,0.00,,,0.00,390,WeatherCatV1.15B25,2013-07-02 17:36:00,
2013-07-02 12:41:00,79.9,54.7,30.09,NNE,13,3.0,7.0,42,0.00,,,0.00,1063,WeatherCatV1.15B25,2013-07-02 17:41:00,
2013-07-02 12:46:00,80.4,55.8,30.08,North,0,5.0,9.0,43,0.00,,,0.00,1102,WeatherCatV1.15B25,2013-07-02 17:46:00,
2013-07-02 12:51:00,81.0,54.4,30.08,North,0,4.0,7.0,40,0.00,,,0.00,1072,WeatherCatV1.15B25,2013-07-02 17:51:00,
2013-07-02 12:56:00,80.8,54.2,30.08,North,0,5.0,5.0,40,0.00,,,0.00,387,WeatherCatV1.15B25,2013-07-02 17:56:00,
2013-07-02 13:01:00,80.8,52.8,30.08,North,355,0.0,5.0,38,0.00,,,0.00,345,WeatherCatV1.15B25,2013-07-02 18:01:00,
2013-07-02 13:06:00,80.2,53.7,30.08,North,350,0.0,4.0,40,0.00,,,0.00,399,WeatherCatV1.15B25,2013-07-02 18:06:00,
2013-07-02 13:11:00,79.8,54.6,30.08,North,350,0.0,0.0,42,0.00,,,0.00,397,WeatherCatV1.15B25,2013-07-02 18:11:00,
2013-07-02 13:16:00,80.1,54.2,30.08,North,350,0.0,5.0,41,0.00,,,0.00,492,WeatherCatV1.15B25,2013-07-02 18:16:00,
2013-07-02 13:21:00,80.2,53.7,30.07,NNW,348,0.0,0.0,40,0.00,,,0.00,338,WeatherCatV1.15B25,2013-07-02 18:21:00,
2013-07-02 13:26:00,79.9,53.4,30.07,North,349,0.0,1.0,40,0.00,,,0.00,332,WeatherCatV1.15B25,2013-07-02 18:26:00,
2013-07-02 13:31:00,80.1,55.6,30.07,NNW,348,0.0,0.0,43,0.00,,,0.00,578,WeatherCatV1.15B25,2013-07-02 18:31:00,
2013-07-02 13:36:00,81.6,54.9,30.07,North,350,1.0,1.0,40,0.00,,,0.00,1127,WeatherCatV1.15B25,2013-07-02 18:36:00,
2013-07-02 13:41:00,83.4,55.8,30.07,North,0,1.0,4.0,39,0.00,,,0.00,1164,WeatherCatV1.15B25,2013-07-02 18:41:00,
2013-07-02 13:46:00,83.5,55.2,30.07,NNW,348,0.0,1.0,38,0.00,,,0.00,327,WeatherCatV1.15B25,2013-07-02 18:46:00,
2013-07-02 13:51:00,81.9,55.9,30.07,North,0,1.0,1.0,41,0.00,,,0.00,287,WeatherCatV1.15B25,2013-07-02 18:51:00,
2013-07-02 13:56:00,80.8,54.9,30.07,North,0,0.0,4.0,41,0.00,,,0.00,376,WeatherCatV1.15B25,2013-07-02 18:56:00,
2013-07-02 14:01:00,80.3,54.4,30.06,North,0,1.0,6.0,41,0.00,,,0.00,332,WeatherCatV1.15B25,2013-07-02 19:01:00,
2013-07-02 14:06:00,80.3,54.4,30.06,North,0,0.0,2.0,41,0.00,,,0.00,1072,WeatherCatV1.15B25,2013-07-02 19:06:00,
2013-07-02 14:11:00,81.1,53.8,30.06,North,0,3.0,4.0,39,0.00,,,0.00,1062,WeatherCatV1.15B25,2013-07-02 19:11:00,
2013-07-02 14:16:00,81.5,54.8,30.06,North,0,4.0,10.0,40,0.00,,,0.00,1078,WeatherCatV1.15B25,2013-07-02 19:16:00,
2013-07-02 14:21:00,82.0,53.1,30.06,North,10,0.0,3.0,37,0.00,,,0.00,1072,WeatherCatV1.15B25,2013-07-02 19:21:00,
2013-07-02 14:26:00,82.3,54.8,30.05,North,9,0.0,4.0,39,0.00,,,0.00,1139,WeatherCatV1.15B25,2013-07-02 19:26:00,
2013-07-02 14:31:00,82.3,53.4,30.05,North,355,3.0,10.0,37,0.00,,,0.00,345,WeatherCatV1.15B25,2013-07-02 19:31:00,
2013-07-02 14:36:00,81.6,54.2,30.05,North,355,0.0,0.0,39,0.00,,,0.00,422,WeatherCatV1.15B25,2013-07-02 19:36:00,
2013-07-02 14:41:00,81.5,53.4,30.05,North,355,0.0,1.0,38,0.00,,,0.00,369,WeatherCatV1.15B25,2013-07-02 19:41:00,
2013-07-02 14:46:00,81.4,57.4,30.05,North,355,2.0,2.0,44,0.00,,,0.00,1067,WeatherCatV1.15B25,2013-07-02 19:46:00,
2013-07-02 14:51:00,82.2,56.1,30.05,North,355,1.0,1.0,41,0.00,,,0.00,276,WeatherCatV1.15B25,2013-07-02 19:51:00,
2013-07-02 14:56:00,81.7,55.0,30.05,North,355,0.0,0.0,40,0.00,,,0.00,336,WeatherCatV1.15B25,2013-07-02 19:56:00,
2013-07-02 15:01:00,82.0,55.3,30.04,North,355,0.0,0.0,40,0.00,,,0.00,330,WeatherCatV1.15B25,2013-07-02 20:01:00,
2013-07-02 15:06:00,81.7,54.3,30.04,North,355,4.0,5.0,39,0.00,,,0.00,378,WeatherCatV1.15B25,2013-07-02 20:06:00,
2013-07-02 15:11:00,81.2,53.9,30.04,North,351,0.0,6.0,39,0.00,,,0.00,1088,WeatherCatV1.15B25,2013-07-02 20:11:00,
2013-07-02 15:16:00,82.0,53.1,30.04,North,351,3.0,3.0,37,0.00,,,0.00,1095,WeatherCatV1.15B25,2013-07-02 20:16:00,
2013-07-02 15:21:00,82.4,54.2,30.04,North,350,2.0,6.0,38,0.00,,,0.00,1030,WeatherCatV1.15B25,2013-07-02 20:21:00,
2013-07-02 15:26:00,82.8,52.3,30.04,North,350,0.0,0.0,35,0.00,,,0.00,1025,WeatherCatV1.15B25,2013-07-02 20:26:00,
2013-07-02 15:31:00,83.9,54.1,30.04,NNW,342,0.0,4.0,36,0.00,,,0.00,1021,WeatherCatV1.15B25,2013-07-02 20:31:00,
2013-07-02 15:36:00,83.4,55.1,30.04,West,279,2.0,9.0,38,0.00,,,0.00,376,WeatherCatV1.15B25,2013-07-02 20:36:00,
2013-07-02 15:41:00,83.1,55.5,30.04,West,279,4.0,4.0,39,0.00,,,0.00,278,WeatherCatV1.15B25,2013-07-02 20:41:00,
2013-07-02 15:46:00,82.8,56.0,30.04,West,279,0.0,0.0,40,0.00,,,0.00,232,WeatherCatV1.15B25,2013-07-02 20:46:00,
2013-07-02 15:51:00,82.5,54.3,30.03,West,279,0.0,2.0,38,0.00,,,0.00,239,WeatherCatV1.15B25,2013-07-02 20:51:00,
2013-07-02 15:56:00,82.5,53.6,30.04,West,279,0.0,0.0,37,0.00,,,0.00,891,WeatherCatV1.15B25,2013-07-02 20:56:00,
2013-07-02 16:01:00,83.0,53.3,30.03,West,279,0.0,2.0,36,0.00,,,0.00,867,WeatherCatV1.15B25,2013-07-02 21:01:00,
2013-07-02 16:06:00,83.7,53.1,30.03,West,279,1.0,1.0,35,0.00,,,0.00,874,WeatherCatV1.15B25,2013-07-02 21:06:00,
2013-07-02 16:11:00,83.1,51.0,30.03,NW,323,1.0,5.0,33,0.00,,,0.00,214,WeatherCatV1.15B25,2013-07-02 21:11:00,
2013-07-02 16:16:00,82.4,52.7,30.03,NW,322,0.0,1.0,36,0.00,,,0.00,253,WeatherCatV1.15B25,2013-07-02 21:16:00,
2013-07-02 16:21:00,82.5,52.1,30.03,NW,323,0.0,4.0,35,0.00,,,0.00,870,WeatherCatV1.15B25,2013-07-02 21:21:00,
2013-07-02 16:26:00,83.6,55.3,30.03,NW,323,0.0,1.0,38,0.00,,,0.00,810,WeatherCatV1.15B25,2013-07-02 21:26:00,
2013-07-02 16:31:00,83.6,54.5,30.02,NW,322,0.0,2.0,37,0.00,,,0.00,810,WeatherCatV1.15B25,2013-07-02 21:31:00,
2013-07-02 16:36:00,83.6,55.3,30.02,NW,323,3.0,4.0,38,0.00,,,0.00,789,WeatherCatV1.15B25,2013-07-02 21:36:00,
2013-07-02 16:41:00,83.7,53.9,30.02,NNW,338,8.0,8.0,36,0.00,,,0.00,802,WeatherCatV1.15B25,2013-07-02 21:41:00,
2013-07-02 16:46:00,83.6,54.5,30.02,NNW,340,0.0,1.0,37,0.00,,,0.00,784,WeatherCatV1.15B25,2013-07-02 21:46:00,
2013-07-02 16:51:00,84.2,55.1,30.01,NNW,340,0.0,0.0,37,0.00,,,0.00,773,WeatherCatV1.15B25,2013-07-02 21:51:00,
2013-07-02 16:56:00,84.0,51.8,30.01,NNW,340,2.0,6.0,33,0.00,,,0.00,798,WeatherCatV1.15B25,2013-07-02 21:56:00,
2013-07-02 17:01:00,84.0,51.8,30.01,NNW,334,2.0,4.0,33,0.00,,,0.00,805,WeatherCatV1.15B25,2013-07-02 22:01:00,
2013-07-02 17:06:00,84.3,53.6,30.01,NNW,338,2.0,6.0,35,0.00,,,0.00,817,WeatherCatV1.15B25,2013-07-02 22:06:00,
2013-07-02 17:11:00,84.5,52.2,30.01,NNW,338,0.0,0.0,33,0.00,,,0.00,826,WeatherCatV1.15B25,2013-07-02 22:11:00,
2013-07-02 17:16:00,84.4,52.9,30.01,NNW,338,2.0,3.0,34,0.00,,,0.00,635,WeatherCatV1.15B25,2013-07-02 22:16:00,
2013-07-02 17:21:00,83.8,54.0,30.01,NNW,338,0.0,6.0,36,0.00,,,0.00,199,WeatherCatV1.15B25,2013-07-02 22:21:00,
2013-07-02 17:26:00,82.2,55.4,30.02,NNW,344,1.0,5.0,40,0.00,,,0.00,155,WeatherCatV1.15B25,2013-07-02 22:26:00,
2013-07-02 17:31:00,80.3,57.0,30.02,NNW,344,0.0,2.0,45,0.00,,,0.00,139,WeatherCatV1.15B25,2013-07-02 22:31:00,
2013-07-02 17:36:00,79.0,57.6,30.01,ESE,114,1.0,13.0,48,0.00,,,0.00,142,WeatherCatV1.15B25,2013-07-02 22:36:00,
2013-07-02 17:41:00,77.6,56.3,30.02,ESE,118,5.0,13.0,48,0.00,,,0.00,162,WeatherCatV1.15B25,2013-07-02 22:41:00,
2013-07-02 17:46:00,77.2,56.5,30.01,SE,130,2.0,4.0,49,0.00,,,0.00,192,WeatherCatV1.15B25,2013-07-02 22:46:00,
2013-07-02 17:51:00,76.8,56.7,30.01,ESE,123,3.0,3.0,50,0.00,,,0.00,199,WeatherCatV1.15B25,2013-07-02 22:51:00,
2013-07-02 17:56:00,76.7,56.6,30.01,SE,125,0.0,7.0,50,0.00,,,0.00,221,WeatherCatV1.15B25,2013-07-02 22:56:00,
2013-07-02 18:01:00,76.7,57.2,30.01,SE,126,2.0,5.0,51,0.00,,,0.00,271,WeatherCatV1.15B25,2013-07-02 23:01:00,
2013-07-02 18:06:00,76.8,57.3,30.01,SE,124,2.0,3.0,51,0.00,,,0.00,190,WeatherCatV1.15B25,2013-07-02 23:06:00,
2013-07-02 18:11:00,76.6,57.6,30.01,ESE,122,3.0,5.0,52,0.00,,,0.00,142,WeatherCatV1.15B25,2013-07-02 23:11:00,
2013-07-02 18:16:00,76.0,57.6,30.01,ESE,123,1.0,3.0,53,0.00,,,0.00,130,WeatherCatV1.15B25,2013-07-02 23:16:00,
2013-07-02 18:21:00,75.7,58.4,30.01,ESE,122,2.0,6.0,55,0.00,,,0.00,171,WeatherCatV1.15B25,2013-07-02 23:21:00,
2013-07-02 18:26:00,76.0,58.6,30.00,ESE,122,1.0,9.0,55,0.00,,,0.00,418,WeatherCatV1.15B25,2013-07-02 23:26:00,
2013-07-02 18:31:00,76.6,58.7,30.00,SE,124,5.0,7.0,54,0.00,,,0.00,390,WeatherCatV1.15B25,2013-07-02 23:31:00,
2013-07-02 18:36:00,76.7,58.8,30.00,ESE,123,5.0,5.0,54,0.00,,,0.00,132,WeatherCatV1.15B25,2013-07-02 23:36:00,
2013-07-02 18:41:00,76.5,59.1,30.00,ESE,123,0.0,4.0,55,0.00,,,0.00,272,WeatherCatV1.15B25,2013-07-02 23:41:00,
2013-07-02 18:46:00,76.3,58.4,30.01,SE,124,4.0,4.0,54,0.00,,,0.00,162,WeatherCatV1.15B25,2013-07-02 23:46:00,
2013-07-02 18:51:00,76.1,59.2,30.01,ESE,123,0.0,4.0,56,0.00,,,0.00,151,WeatherCatV1.15B25,2013-07-02 23:51:00,
2013-07-02 18:56:00,76.1,58.7,30.00,SE,124,0.0,5.0,55,0.00,,,0.00,167,WeatherCatV1.15B25,2013-07-02 23:56:00,
2013-07-02 19:01:00,76.6,59.7,30.00,SE,124,0.0,0.0,56,0.00,,,0.00,362,WeatherCatV1.15B25,2013-07-03 00:01:00,
2013-07-02 19:05:00,77.0,59.1,30.01,SE,130,0.0,3.0,54,0.00,,,0.00,174,WeatherCatV1.15B25,2013-07-03 00:05:00,
2013-07-02 19:10:00,77.1,59.7,30.01,SE,130,0.0,3.0,55,0.00,,,0.00,135,WeatherCatV1.15B25,2013-07-03 00:10:00,
2013-07-02 19:15:00,76.9,59.5,30.01,SE,130,5.0,5.0,55,0.00,,,0.00,125,WeatherCatV1.15B25,2013-07-03 00:15:00,
2013-07-02 19:20:00,76.4,59.0,30.01,SE,131,0.0,4.0,55,0.00,,,0.00,125,WeatherCatV1.15B25,2013-07-03 00:20:00,
2013-07-02 19:25:00,76.2,58.8,30.00,SE,130,0.0,2.0,55,0.00,,,0.00,120,WeatherCatV1.15B25,2013-07-03 00:25:00,
2013-07-02 19:30:00,76.2,58.8,30.00,SE,130,0.0,2.0,55,0.00,,,0.00,107,WeatherCatV1.15B25,2013-07-03 00:30:00,
2013-07-02 19:35:00,76.2,59.3,30.00,SE,131,3.0,4.0,56,0.00,,,0.00,90,WeatherCatV1.15B25,2013-07-03 00:35:00,
2013-07-02 19:40:00,75.9,58.6,30.01,SE,130,0.0,4.0,55,0.00,,,0.00,63,WeatherCatV1.15B25,2013-07-03 00:40:00,
2013-07-02 19:45:00,75.8,58.5,30.01,SE,131,0.0,3.0,55,0.00,,,0.00,49,WeatherCatV1.15B25,2013-07-03 00:45:00,
2013-07-02 19:50:00,75.6,58.3,30.01,SE,131,0.0,3.0,55,0.00,,,0.00,56,WeatherCatV1.15B25,2013-07-03 00:50:00,
2013-07-02 19:55:00,75.5,58.7,30.01,SE,131,0.0,2.0,56,0.00,,,0.00,65,WeatherCatV1.15B25,2013-07-03 00:55:00,
2013-07-02 20:00:00,75.4,58.6,30.01,SE,130,0.0,2.0,56,0.00,,,0.00,76,WeatherCatV1.15B25,2013-07-03 01:00:00,
2013-07-02 20:05:00,75.4,58.6,30.01,SE,131,0.0,0.0,56,0.00,,,0.00,79,WeatherCatV1.15B25,2013-07-03 01:05:00,
2013-07-02 20:10:00,75.3,58.5,30.01,SE,131,0.0,0.0,56,0.00,,,0.00,65,WeatherCatV1.15B25,2013-07-03 01:10:00,
2013-07-02 20:15:00,75.5,59.7,30.01,SE,130,0.0,0.0,58,0.00,,,0.00,58,WeatherCatV1.15B25,2013-07-03 01:15:00,
2013-07-02 20:20:00,75.6,59.3,30.01,SE,131,0.0,0.0,57,0.00,,,0.00,51,WeatherCatV1.15B25,2013-07-03 01:20:00,
2013-07-02 20:25:00,75.6,59.3,30.01,SE,131,0.0,0.0,57,0.00,,,0.00,51,WeatherCatV1.15B25,2013-07-03 01:25:00,
2013-07-02 20:30:00,75.3,59.5,30.01,SE,130,0.0,1.0,58,0.00,,,0.00,46,WeatherCatV1.15B25,2013-07-03 01:30:00,
2013-07-02 20:35:00,75.1,59.8,30.01,SE,131,0.0,0.0,59,0.00,,,0.00,40,WeatherCatV1.15B25,2013-07-03 01:35:00,
2013-07-02 20:40:00,74.8,59.5,30.01,SE,131,2.0,3.0,59,0.00,,,0.00,33,WeatherCatV1.15B25,2013-07-03 01:40:00,
2013-07-02 20:45:00,74.7,59.9,30.01,SE,130,0.0,0.0,60,0.00,,,0.00,28,WeatherCatV1.15B25,2013-07-03 01:45:00,
2013-07-02 20:50:00,74.5,59.7,30.01,SE,131,1.0,4.0,60,0.00,,,0.00,23,WeatherCatV1.15B25,2013-07-03 01:50:00,
2013-07-02 20:55:00,74.4,59.6,30.01,SE,131,0.0,0.0,60,0.00,,,0.00,14,WeatherCatV1.15B25,2013-07-03 01:55:00,
2013-07-02 21:00:00,74.2,59.4,30.01,SE,130,0.0,0.0,60,0.00,,,0.00,9,WeatherCatV1.15B25,2013-07-03 02:00:00,
2013-07-02 21:05:00,74.0,59.2,30.01,SE,131,0.0,0.0,60,0.00,,,0.00,5,WeatherCatV1.15B25,2013-07-03 02:05:00,
2013-07-02 21:10:00,73.6,59.8,30.01,SE,131,0.0,0.0,62,0.00,,,0.00,5,WeatherCatV1.15B25,2013-07-03 02:10:00,
2013-07-02 21:15:00,73.2,59.4,30.01,SE,130,0.0,0.0,62,0.00,,,0.00,0,WeatherCatV1.15B25,2013-07-03 02:15:00,
2013-07-02 21:20:00,72.8,59.5,30.01,SE,130,0.0,0.0,63,0.00,,,0.00,0,WeatherCatV1.15B25,2013-07-03 02:20:00,
2013-07-02 21:25:00,72.5,59.6,30.01,SE,131,0.0,0.0,64,0.00,,,0.00,0,WeatherCatV1.15B25,2013-07-03 02:25:00,
2013-07-02 21:30:00,72.2,59.8,30.01,SE,131,0.0,0.0,65,0.00,,,0.00,0,WeatherCatV1.15B25,2013-07-03 02:30:00,
2013-07-02 21:31:00,72.1,59.7,30.01,SE,131,0.0,0.0,65,0.00,,,0.00,0,WeatherCatV1.15B25,2013-07-03 02:31:00,
2013-07-02 21:36:00,71.7,59.7,30.01,SE,131,0.0,0.0,66,0.00,,,0.00,0,WeatherCatV1.15B25,2013-07-03 02:36:00,
2013-07-02 21:41:00,71.3,59.8,30.01,SE,130,0.0,0.0,67,0.00,,,0.00,0,WeatherCatV1.15B25,2013-07-03 02:41:00,
2013-07-02 21:46:00,71.1,59.6,30.01,SE,131,0.0,0.0,67,0.00,,,0.00,0,WeatherCatV1.15B25,2013-07-03 02:46:00,
2013-07-02 21:51:00,70.9,59.8,30.01,SE,130,0.0,0.0,68,0.00,,,0.00,0,WeatherCatV1.15B25,2013-07-03 02:51:00,
2013-07-02 21:56:00,70.5,59.4,30.01,SE,131,0.0,0.0,68,0.00,,,0.00,0,WeatherCatV1.15B25,2013-07-03 02:56:00,
2013-07-02 22:01:00,70.1,59.8,30.01,SE,131,0.0,0.0,70,0.00,,,0.00,0,WeatherCatV1.15B25,2013-07-03 03:01:00,
2013-07-02 22:06:00,69.8,59.6,30.01,SE,131,0.0,0.0,70,0.00,,,0.00,0,WeatherCatV1.15B25,2013-07-03 03:06:00,
2013-07-02 22:11:00,69.7,59.9,30.02,SE,130,0.0,0.0,71,0.00,,,0.00,0,WeatherCatV1.15B25,2013-07-03 03:11:00,
2013-07-02 22:16:00,69.5,60.1,30.01,SE,131,0.0,0.0,72,0.00,,,0.00,0,WeatherCatV1.15B25,2013-07-03 03:16:00,
2013-07-02 22:22:00,69.4,60.0,30.01,SE,130,0.0,0.0,72,0.00,,,0.00,0,WeatherCatV1.15B25,2013-07-03 03:22:00,
2013-07-02 22:27:00,69.5,60.1,30.02,SE,131,0.0,0.0,72,0.00,,,0.00,0,WeatherCatV1.15B25,2013-07-03 03:27:00,
2013-07-02 22:32:00,69.6,60.2,30.02,SE,131,0.0,0.0,72,0.00,,,0.00,0,WeatherCatV1.15B25,2013-07-03 03:32:00,
2013-07-02 22:35:00,69.7,60.3,30.01,SE,131,0.0,0.0,72,0.00,,,0.00,0,WeatherCatV1.15B25,2013-07-03 03:35:00,
2013-07-02 22:38:00,69.7,60.3,30.01,SE,131,0.0,0.0,72,0.00,,,0.00,0,WeatherCatV1.15B25,2013-07-03 03:38:00,
2013-07-02 22:43:00,69.6,60.2,30.01,SE,130,0.0,0.0,72,0.00,,,0.00,0,WeatherCatV1.15B25,2013-07-03 03:43:00,
2013-07-02 22:48:00,69.4,60.4,30.01,SE,130,0.0,0.0,73,0.00,,,0.00,0,WeatherCatV1.15B25,2013-07-03 03:48:00,
2013-07-02 22:53:00,69.3,59.9,30.02,SE,131,0.0,0.0,72,0.00,,,0.00,0,WeatherCatV1.15B25,2013-07-03 03:53:00,
2013-07-02 22:58:00,69.2,59.8,30.02,SE,130,0.0,0.0,72,0.00,,,0.00,0,WeatherCatV1.15B25,2013-07-03 03:58:00,
2013-07-02 23:01:00,69.1,60.1,30.02,SE,131,0.0,0.0,73,0.00,,,0.00,0,WeatherCatV1.15B25,2013-07-03 04:01:00,
2013-07-02 23:06:00,68.9,59.9,30.01,SE,131,0.0,0.0,73,0.00,,,0.00,0,WeatherCatV1.15B25,2013-07-03 04:06:00,
2013-07-02 23:11:00,68.6,60.0,30.01,SE,130,0.0,0.0,74,0.00,,,0.00,0,WeatherCatV1.15B25,2013-07-03 04:11:00,
2013-07-02 23:16:00,68.2,59.6,30.01,SE,131,0.0,0.0,74,0.00,,,0.00,0,WeatherCatV1.15B25,2013-07-03 04:16:00,
2013-07-02 23:21:00,67.9,59.7,30.01,SE,131,0.0,0.0,75,0.00,,,0.00,0,WeatherCatV1.15B25,2013-07-03 04:21:00,
2013-07-02 23:26:00,67.6,59.4,30.01,SE,130,0.0,0.0,75,0.00,,,0.00,0,WeatherCatV1.15B25,2013-07-03 04:26:00,
2013-07-02 23:31:00,67.4,59.6,30.01,SE,131,0.0,0.0,76,0.00,,,0.00,0,WeatherCatV1.15B25,2013-07-03 04:31:00,
2013-07-02 23:36:00,67.3,59.8,30.01,SE,130,0.0,0.0,77,0.00,,,0.00,0,WeatherCatV1.15B25,2013-07-03 04:36:00,
2013-07-02 23:41:00,67.2,59.7,30.01,SE,131,0.0,0.0,77,0.00,,,0.00,0,WeatherCatV1.15B25,2013-07-03 04:41:00,
2013-07-02 23:44:00,67.2,59.7,30.01,SE,131,0.0,0.0,77,0.00,,,0.00,0,WeatherCatV1.15B25,2013-07-03 04:44:00,
2013-07-02 23:45:00,67.2,59.7,30.01,SE,131,0.0,0.0,77,0.00,,,0.00,0,WeatherCatV1.15B25,2013-07-03 04:45:00,
2013-07-02 23:50:00,67.1,59.6,30.01,SE,130,0.0,0.0,77,0.00,,,0.00,0,WeatherCatV1.15B25,2013-07-03 04:50:00,
2013-07-02 23:52:00,67.1,60.0,30.01,SE,131,0.0,0.0,78,0.00,,,0.00,0,WeatherCatV1.15B25,2013-07-03 04:52:00,
2013-07-02 23:57:00,67.0,59.9,30.02,SE,131,0.0,0.0,78,0.00,,,0.00,0,WeatherCatV1.15B25,2013-07-03 04:57:00,